TimeCDT,TemperatureF,Dew PointF,Humidity,Sea Level PressureIn,VisibilityMPH,Wind Direction,Wind SpeedMPH,Gust SpeedMPH,PrecipitationIn,Events,Conditions,WindDirDegrees,DateUTC
12:53 AM,72.0,68.0,87,30.15,10.0,Calm,Calm,-,N/A,,Mostly Cloudy,0,2013-07-16 05:53:00
1:53 AM,72.0,68.0,87,30.14,10.0,ENE,4.6,-,N/A,,Mostly Cloudy,70,2013-07-16 06:53:00
2:53 AM,71.1,68.0,90,30.14,10.0,NE,4.6,-,N/A,,Mostly Cloudy,40,2013-07-16 07:53:00
3:53 AM,71.1,68.0,90,30.16,9.0,East,4.6,-,N/A,,Overcast,100,2013-07-16 08:53:00
4:53 AM,71.1,68.0,90,30.16,10.0,East,4.6,-,0.00,Rain,Light Rain,100,2013-07-16 09:53:00
5:53 AM,71.1,68.0,90,30.16,10.0,ENE,4.6,-,0.00,,Mostly Cloudy,60,2013-07-16 10:53:00
6:53 AM,71.1,68.0,90,30.17,6.0,ENE,3.5,-,N/A,,Mostly Cloudy,70,2013-07-16 11:53:00
7:40 AM,73.0,70.0,90,30.20,8.0,East,4.6,-,N/A,,Mostly Cloudy,80,2013-07-16 12:40:00
7:53 AM,73.0,69.1,87,30.19,9.0,East,5.8,-,N/A,,Mostly Cloudy,100,2013-07-16 12:53:00
8:53 AM,75.9,69.1,79,30.21,10.0,ESE,4.6,-,N/A,,Mostly Cloudy,110,2013-07-16 13:53:00
9:53 AM,82.0,68.0,62,30.21,10.0,SE,8.1,-,N/A,,Scattered Clouds,140,2013-07-16 14:53:00
10:53 AM,84.0,66.9,56,30.21,10.0,Variable,4.6,-,N/A,,Scattered Clouds,0,2013-07-16 15:53:00
11:53 AM,86.0,68.0,55,30.21,10.0,SE,6.9,-,N/A,,Mostly Cloudy,140,2013-07-16 16:53:00
12:53 PM,84.9,69.1,59,30.20,10.0,East,9.2,-,N/A,,Mostly Cloudy,100,2013-07-16 17:53:00
1:53 PM,84.9,68.0,57,30.19,10.0,SSE,9.2,-,N/A,,Mostly Cloudy,150,2013-07-16 18:53:00
2:53 PM,89.1,66.0,46,30.16,10.0,SE,9.2,17.3,N/A,,Mostly Cloudy,140,2013-07-16 19:53:00
3:53 PM,89.1,68.0,50,30.16,10.0,SE,11.5,16.1,N/A,,Mostly Cloudy,130,2013-07-16 20:53:00
4:53 PM,91.0,68.0,47,30.15,10.0,ESE,10.4,-,N/A,,Mostly Cloudy,110,2013-07-16 21:53:00
5:53 PM,80.1,71.1,74,30.18,7.0,ESE,4.6,-,0.06,Rain,Light Rain,110,2013-07-16 22:53:00
6:53 PM,81.0,71.1,72,30.16,7.0,East,5.8,-,0.00,,Mostly Cloudy,100,2013-07-16 23:53:00
7:53 PM,81.0,70.0,69,30.18,10.0,NE,5.8,-,N/A,,Mostly Cloudy,50,2013-07-17 00:53:00
8:53 PM,80.1,70.0,71,30.17,10.0,East,4.6,-,N/A,,Mostly Cloudy,90,2013-07-17 01:53:00
9:53 PM,79.0,69.1,72,30.20,10.0,East,3.5,-,N/A,,Mostly Cloudy,90,2013-07-17 02:53:00
10:53 PM,79.0,69.1,72,30.21,10.0,Calm,Calm,-,N/A,,Mostly Cloudy,0,2013-07-17 03:53:00
11:53 PM,77.0,69.1,76,30.22,10.0,Calm,Calm,-,N/A,,Mostly Cloudy,0,2013-07-17 04:53:00